Printer-friendly version

IAU Minor Planet Center

Minor Planet Center

MPEC 2006-V21 : COMET C/2006 Q1 (McNAUGHT)

The following Minor Planet Electronic Circular may be linked-to from your own Web pages, but must not otherwise be redistributed electronically.


Read MPEC 2006-V20 Read MPEC 2006-V22


M.P.E.C. 2006-V21                                Issued 2006 Nov. 8, 15:47 UT

     The Minor Planet Electronic Circulars contain information on unusual
         minor planets and routine data on comets.  They are published
   on behalf of Commission 20 of the International Astronomical Union by the
          Minor Planet Center, Smithsonian Astrophysical Observatory,
                          Cambridge, MA 02138, U.S.A.

             Prepared using the Tamkin Foundation Computer Network

                              MPC@CFA.HARVARD.EDU
          URL http://cfa-www.harvard.edu/iau/mpc.html  ISSN 1523-6714

                          COMET C/2006 Q1 (McNAUGHT)

Observations:
    CK06Q010  C2006 10 31.54432 05 35 11.32 -35 08 25.0          16.7 T EV021423
    CK06Q010  C2006 10 31.56840 05 35 10.95 -35 08 36.5          16.7 T EV021423
    CK06Q010  C2006 10 31.60345 05 35 10.42 -35 08 53.8          17.0 T EV021423
    CK06Q010  C2006 11 01.55545 05 34 55.52 -35 16 27.1          16.8 T EV021423
    CK06Q010  C2006 11 01.58780 05 34 54.98 -35 16 42.7          16.7 T EV021423
    CK06Q010  C2006 11 01.61977 05 34 54.46 -35 16 57.9          16.8 T EV021423
    CK06Q010  C2006 11 01.62347 05 34 54.39 -35 17 00.5          18.1 N EV021415
    CK06Q010  C2006 11 01.63400 05 34 54.22 -35 17 05.6          18.0 N EV021415

Observer details:
415 Kambah, near Canberra.  Observer D. Herald.  0.36-m f/3.9
    Schmidt-Cassegrain + CCD.
423 North Ryde.  Observer S. G. McAndrew.  0.20-m f/4 hyperbolic astrograph
    + CCD.

Orbital elements:
    C/2006 Q1 (McNaught)
Epoch 2008 June 23.0 TT = JDT 2454640.5
T 2008 July 3.78483 TT                                  MPC
q   2.7631113            (2000.0)            P               Q
z  +0.0000286      Peri.  344.38643     -0.95392383     -0.08792977
 +/-0.0000483      Node   199.54328     -0.08407990     -0.83945588
e   0.9999211      Incl.   59.04563     -0.28802761     +0.53626689
Residuals in seconds of arc
060820 E12  0.8-  0.1-    060824 E12  0.1-  0.1-    061011 423  0.2-  0.3+
060820 E12  0.3-  0.2+    060824 E12  0.0   0.1-    061011 423  0.2+  0.2+
060820 E12  0.1+  0.0     060824 E12  0.4+  0.3-    061012 423  0.2-  0.1-
060820 E12  0.6-  0.3-    060825 E12  0.1+  0.1+    061012 423  0.2-  0.0
060821 E12  0.1-  0.1+    060826 E12  0.1+  0.1+    061013 415  0.6+  0.7-
060821 E12  0.1+  0.2+    060827 E12  0.2+  0.0     061013 415  0.1+  0.8-
060821 E12  0.2+  0.1-    060827 E12  0.0   0.0     061013 423  0.1+  0.1+
060821 E12  0.6-  0.0     060827 E12  0.1+  0.0     061013 423  0.1-  0.0
060821 E12  0.3-  0.2+    060831 E12  0.1+  0.0     061014 E12  0.1+  0.3-
060821 E12  0.6-  0.2+    060905 E12  0.0   0.1-    061018 423  0.0   0.3-
060821 E12  0.3-  0.1-    060912 E12  0.0   0.1+    061018 423  0.0   0.1+
060821 E12  0.5-  0.0     060915 423  0.1-  0.2+    061021 415  0.1+  0.8-
060821 E12  0.6+  0.2-    060915 423  0.1-  0.3+    061021 415  0.1+  0.8-
060822 844  0.4+  0.0     060916 423  0.1+  0.2+    061022 423  0.3+  0.2+
060822 844  0.6+  1.2-    060916 423  0.2-  0.1+    061022 423  0.1+  0.2+
060822 844  0.2-  0.1-    060919 E12  0.2-  0.3-    061022 423  0.1-  0.4+
060822 844  0.7-  0.2+    060921 E12  0.2+  0.2-    061022 415  0.3+  0.7-
060822 I77  0.3+  0.4-    060927 423  0.1-  0.4+    061022 415  0.3+  0.3-
060822 I77  1.0+  0.3+    060927 E12  0.1+  0.4-    061027 423  0.0   0.2+
060822 I77  0.5+  0.1-    060927 423  1.2+  0.2+    061027 423  0.2-  0.5+
060822 E12  0.1+  0.2-    060928 423  0.3-  0.4+    061028 423  0.3-  0.4+
060822 E12  0.6+  1.4+    060928 423  0.1+  0.3+    061028 423  0.0   0.1+
060822 E12  0.0   0.3-    061001 423  1.7-  0.5+    061031 423  0.2-  0.4+
060822 E12  0.1-  0.6+    061001 423  0.2-  0.1-    061031 423  0.1-  0.5+
060822 E12  0.1+  0.3+    061002 E12  0.2+  0.4-    061031 423  0.2+  0.1+
060822 E12  0.1-  0.3+    061004 423  0.2-  0.2+    061101 423  0.0   0.4+
060823 673  0.3-  0.1+    061004 423  0.2-  0.2-    061101 423  0.1-  0.2+
060823 673  0.4+  0.1-    061010 423  0.1+  0.6+    061101 423  0.1+  0.3+
060823 673  0.1-  0.7-    061010 423  0.1+  0.1+    061101 415  0.1-  0.6-
060823 673  0.3+  0.4-    061010 423  0.0   0.1-    061101 415  0.0   0.7-

     The "original" and "future" barycentric values of 1/a are -0.000002
and +0.000657 (+/- 0.000048) AU^-1, respectively.

Brian G. Marsden             (C) Copyright 2006 MPC           M.P.E.C. 2006-V21

Read MPEC 2006-V20 Read MPEC 2006-V22


Our Web policy. Index to the CBAT/MPC/ICQ pages.


Valid HTML 4.01!